This demonstration page uses our WeatherBlox Daily Observations layout. Learn more.

Hourly Observations for August 13, 2018

Temp ( °F °C ) Dew Point ( °F °C ) Humidity (%) Winds ( mph kmh ) Pressure ( in mb ) Visibility ( mi km ) Precip ( " mm )
12:15 am 00:15 Clear 64 18 61 16.1 89 89 SE 3 6 30.03 1017 10 16.09344 0 0
12:35 am 00:35 Clear 65 18.5 61 16.3 87 87 SSE 5 7 30 1016 10 16.09344 0 0
12:55 am 00:55 Clear 65 18.5 61 16.2 87 87 SSE 5 7 30 1016 10 16.09344 0 0
1:15 am 01:15 Clear 65 18.6 61 16.2 86 86 S 3 6 30 1016 10 16.09344 0 0
1:35 am 01:35 Clear 66 18.7 61 16.2 85 85 Calm 30 1016 10 16.09344 0 0
1:55 am 01:55 Clear 64 17.9 62 16.4 91 91 SSE 5 7 30 1016 10 16.09344 0 0
2:15 am 02:15 Clear 65 18.6 61 16.1 85 85 S 3 6 30 1016 10 16.09344 0 0
2:35 am 02:35 Clear 65 18.2 61 16 87 87 Calm 30 1016 10 16.09344 0 0
2:55 am 02:55 Clear 64 17.8 61 16.1 90 90 Calm 30 1016 10 16.09344 0 0
3:15 am 03:15 Clear 65 18.5 62 16.5 88 88 Calm 30 1016 10 16.09344 0 0
3:35 am 03:35 Clear 63 17.1 61 16.3 95 95 SE 5 7 30 1016 10 16.09344 0 0
3:55 am 03:55 Clear 63 17.2 62 16.5 96 96 Calm 30 1016 10 16.09344 0 0
4:15 am 04:15 Clear 63 17.2 62 16.5 96 96 Calm 30 1016 10 16.09344 0 0
4:35 am 04:35 Clear 64 17.7 62 16.7 94 94 Calm 30 1016 10 16.09344 0 0
4:55 am 04:55 Clear 64 17.9 62 16.8 93 93 Calm 30 1016 10 16.09344 0 0
5:15 am 05:15 Clear 64 17.5 62 16.7 95 95 Calm 30 1016 10 16.09344 0 0
5:35 am 05:35 Clear 63 17.4 62 16.5 94 94 Calm 29.97 1015 10 16.09344 0 0
5:55 am 05:55 Clear 63 17.2 62 16.6 96 96 Calm 30 1016 10 16.09344 0 0
6:15 am 06:15 Clear 63 17.2 62 16.8 98 98 Calm 29.97 1015 10 16.09344 0 0
6:35 am 06:35 Clear 63 17 62 16.7 98 98 Calm 29.97 1015 10 16.09344 0 0
6:55 am 06:55 Sunny 63 17 62 16.8 99 99 Calm 29.97 1015 10 16.09344 0 0
7:15 am 07:15 Sunny 63 17.2 63 17 99 99 E 3 6 30 1016 7 11.265408 0 0
7:35 am 07:35 Sunny 64 17.8 64 17.5 98 98 ESE 3 6 30 1016 10 16.09344 0 0
7:55 am 07:55 Sunny 65 18.4 64 18 98 98 Calm 30 1016 10 16.09344 0 0
8:15 am 08:15 Sunny 67 19.2 65 18.5 96 96 Calm 30 1016 10 16.09344 0 0
8:35 am 08:35 Sunny 69 20.4 66 19.1 92 92 SE 5 7 29.97 1015 10 16.09344 0 0
8:55 am 08:55 Sunny 70 21.2 67 19.6 91 91 SSE 6 9 29.97 1015 10 16.09344 0 0
9:15 am 09:15 Sunny 72 22.1 68 19.8 87 87 SSE 5 7 29.97 1015 10 16.09344 0 0
9:35 am 09:35 Sunny 73 23 68 19.8 82 82 SSE 3 6 29.97 1015 10 16.09344 0 0
9:55 am 09:55 Sunny 74 23.2 68 19.8 81 81 Calm 29.97 1015 10 16.09344 0 0
10:15 am 10:15 Sunny 76 24.3 68 19.9 77 77 SSE 5 7 29.94 1014 10 16.09344 0 0
10:35 am 10:35 Sunny 76 24.5 67 19.5 74 74 SSE 7 11 29.94 1014 10 16.09344 0 0
10:55 am 10:55 Sunny 77 25.1 67 19.3 70 70 SSE 6 9 29.94 1014 10 16.09344 0 0
11:15 am 11:15 Sunny 77 25.2 67 19.4 70 70 SSE 8 13 29.94 1014 10 16.09344 0 0
11:35 am 11:35 Sunny 78 25.6 67 19.5 69 69 S 5 7 29.94 1014 10 16.09344 0 0
11:55 am 11:55 Partly Cloudy 79 26.1 67 19.5 67 67 S 5 7 29.94 1014 10 16.09344 0 0
12:15 pm 12:15 Mostly Cloudy 79 25.9 68 19.9 70 70 SE 9 15 29.94 1014 10 16.09344 0 0
12:35 pm 12:35 Mostly Cloudy 79 26.2 67 19.4 66 66 S 8 13 29.91 1013 10 16.09344 0 0
12:55 pm 12:55 Mostly Cloudy 79 26.3 69 20.4 70 70 SSE 12 19 29.91 1013 10 16.09344 0 0
1:15 pm 13:15 Partly Cloudy 79 26.2 67 19.5 67 67 SE 10 17 29.91 1013 10 16.09344 0 0
1:35 pm 13:35 Partly Cloudy 79 26.1 67 19.4 67 67 SE 10 17 29.91 1013 10 16.09344 0 0
1:55 pm 13:55 Mostly Cloudy 78 25.8 68 19.9 70 70 SSE 6 9 29.91 1013 10 16.09344 0 0
2:15 pm 14:15 Mostly Cloudy 78 25.8 68 19.9 70 70 SE 9 15 29.91 1013 10 16.09344 0 0
2:35 pm 14:35 Partly Cloudy 78 25.7 68 20 71 71 SSE 7 11 29.91 1013 10 16.09344 0 0
2:55 pm 14:55 Sunny 78 25.8 68 19.8 70 70 SSE 7 11 29.91 1013 10 16.09344 0 0
3:15 pm 15:15 Sunny 79 26 67 19.7 68 68 SE 6 9 29.88 1012 10 16.09344 0 0
3:35 pm 15:35 Sunny 79 26 68 20 70 70 SSE 6 9 29.88 1012 10 16.09344 0 0
3:55 pm 15:55 Partly Cloudy 79 26 68 19.9 69 69 SE 6 9 29.88 1012 10 16.09344 0 0
4:15 pm 16:15 Mostly Cloudy 78 25.8 68 20.1 71 71 SE 8 13 29.88 1012 10 16.09344 0 0
4:35 pm 16:35 Mostly Cloudy with Nearby Thunderstorms 77 25.2 69 20.3 74 74 SSE 8 13 29.88 1012 10 16.09344 0 0
4:55 pm 16:55 Partly Cloudy with Nearby Thunderstorms 76 24.5 69 20.4 78 78 S 8 13 29.88 1012 10 16.09344 0 0
5:15 pm 17:15 Partly Cloudy with Nearby Thunderstorms 75 23.7 68 19.9 79 79 S 5 7 29.88 1012 10 16.09344 0 0
5:35 pm 17:35 Mostly Cloudy 75 23.9 69 20.6 82 82 Calm 29.88 1012 10 16.09344 0 0
5:55 pm 17:55 Partly Cloudy 75 23.9 70 20.9 83 83 SE 5 7 29.88 1012 10 16.09344 0 0
6:15 pm 18:15 Mostly Cloudy with Light Rain 74 23.5 70 21.1 86 86 SE 3 6 29.88 1012 10 16.09344 0 0
6:35 pm 18:35 Cloudy with Rain 73 23 71 21.9 94 94 Calm 29.91 1013 10 16.09344 0 0
6:55 pm 18:55 Cloudy with Drizzle 73 22.8 72 22 95 95 Calm 29.91 1013 10 16.09344 0 0
7:15 pm 19:15 Cloudy with Rain 73 22.6 72 22.1 97 97 SSE 3 6 29.91 1013 10 16.09344 0.01 0.254
7:35 pm 19:35 Cloudy with Light Drizzle 72 22.3 71 21.8 97 97 SSE 10 17 29.91 1013 10 16.09344 0.01 0.254
7:55 pm 19:55 Mostly Cloudy with Light Drizzle 71 21.6 70 21.2 98 98 SSE 8 13 29.91 1013 10 16.09344 0.01 0.254
8:15 pm 20:15 Partly Cloudy 70 21.2 69 20.5 96 96 SE 9 15 29.91 1013 10 16.09344 0 0
8:35 pm 20:35 Partly Cloudy with Light Drizzle 69 20.8 69 20.3 97 97 ESE 6 9 29.91 1013 10 16.09344 0 0
8:55 pm 20:55 Cloudy with Light Drizzle 69 20.5 68 20.1 98 98 SE 7 11 29.91 1013 10 16.09344 0 0
9:15 pm 21:15 Cloudy with Light Drizzle 69 20.3 68 20 98 98 SE 3 6 29.91 1013 10 16.09344 0 0
9:35 pm 21:35 Mostly Cloudy with Light Rain 68 20.2 68 20.1 99 99 SSE 3 6 29.91 1013 10 16.09344 0 0
9:55 pm 21:55 Partly Cloudy with Light Rain 68 20.2 68 20.1 99 99 Calm 29.91 1013 10 16.09344 0.01 0.254
10:15 pm 22:15 Partly Cloudy with Light Rain 68 20.1 68 20.1 100 100 Calm 29.91 1013 10 16.09344 0 0
10:35 pm 22:35 Partly Cloudy with Light Rain 68 20 68 20 100 100 E 3 6 29.91 1013 10 16.09344 0 0
10:55 pm 22:55 Partly Cloudy 68 20 68 20 100 100 ESE 5 7 29.91 1013 10 16.09344 0 0
11:15 pm 23:15 Partly Cloudy with Light Rain 68 20 68 19.9 99 99 Calm 29.91 1013 10 16.09344 0 0
11:35 pm 23:35 Partly Cloudy with Light Rain 67 19.6 67 19.6 100 100 Calm 29.91 1013 10 16.09344 0 0
11:55 pm 23:55 Mostly Cloudy 67 19.5 67 19.5 100 100 NNE 3 6 29.91 1013 10 16.09344 0 0

Powered by AerisWeather